Regional Weather Roundup
Issued by NWS Sioux Falls, SD

Home | Current Version | Previous Version | Graphics & Text | Print | Product List | Glossary Off
Versions: 1 2 3 4 5 6 7 8 9 10 11 12 13 14 15 16 17 18 19 20 21 22 23 24 25 26 27 28 29 30 31 32 33 34 35 36 37 38 39 40 41 42 43 44 45 46 47 48 49 50

000
ASUS43 KFSD 070210
RWRFSD

WEATHER ROUNDUP FOR SE SOUTH DAKOTA/SW MINNESOTA/NW IOWA
NATIONAL WEATHER SERVICE SIOUX FALLS SD
900 PM CDT WED MAY 06 2015

NOTE: "FAIR" INDICATES FEW OR NO CLOUDS BELOW 12,000 FEET WITH NO
SIGNIFICANT WEATHER AND OR OBSTRUCTIONS TO VISIBILITY.


SDZ038>040-050-052>070-070300-
SOUTHEAST SOUTH DAKOTA

CITY           SKY/WX    TMP DP  RH WIND       PRES   REMARKS
BROOKINGS      MOCLDY    64  61  88 S16G24    29.71S
CHAMBERLAIN    RAIN      60  58  93 SE21G28   29.62R
HURON          LGT RAIN  66  61  84 S17G24    29.63R
MADISON        CLOUDY    64  64 100 S18G24    29.70S
MITCHELL       HVY RAIN  65  63  93 S15       29.65R FOG
SIOUX FALLS    MOCLDY    67  59  75 SE21G29   29.69F
WINNER         RAIN      62  57  83 S12G22    29.61R
YANKTON        CLOUDY    66  61  82 SE21G29   29.62F
$$

MNZ071-072-080-081-089-090-097-098-070300-
SOUTHWEST MINNESOTA

CITY           SKY/WX    TMP DP  RH WIND       PRES   REMARKS
FAIRMONT       MOCLDY    70  37  30 SE16      29.83R
JACKSON        PTCLDY    68  59  73 SE15      29.81S
LUVERNE        MOCLDY    68  59  73 S15G22    29.74F
MARSHALL       CLOUDY    66  57  72 S18       29.74S
MONTEVIDEO     MOCLDY    68  59  73 S10G17    29.75S
REDWOOD FALLS  MOCLDY    69  60  73 S16       29.78R
TRACY          MOCLDY    69  60  73 S13G21    29.76S
WINDOM         PTCLDY    66  61  82 SE10      29.79F
WORTHINGTON    CLOUDY    66  55  68 S14       29.78S
$$

IAZ001>003-012>014-020>022-031-032-NEZ013-014-SDZ071-070300-
NORTHWEST IOWA

CITY           SKY/WX    TMP DP  RH WIND       PRES   REMARKS
CHEROKEE       PTCLDY    66  60  80 SE16G22   29.76F
DENISON        CLOUDY    68  61  77 S16G30    29.76F
ESTHERVILLE    CLOUDY    66  58  75 SE21      29.81S
LE MARS        MOCLDY    68  61  77 SE16G25   29.72F
ORANGE CITY    MOCLDY    64  57  77 SE14      29.73F
SHELDON        PTCLDY    64 N/A N/A SE20      29.74F
SIOUX CITY     CLOUDY    68  60  75 S20G26    29.71F
SPENCER        MOCLDY    67  58  72 SE17      29.79S
STORM LAKE     MOCLDY    66  59  77 SE18G25   29.80F
$$

ABBREVIATIONS USED IN REMARKS
   TC - TEMPERATURE IN CELSIUS
  WCI - WIND CHILL INDEX
   HX - HEAT INDEX
  VSB - VISIBILITY



USA.gov is the U.S. government's official web portal to all federal, state and local government web resources and services.